| time (UTC) | temp F | wind direction | speed MPH | gust MPH | rain 1hr in | rain 24hr in | rain mn in | humidity % | barometer mb |
| 20260510211508 | 82 | 233 | 4.0 | 10.0 | 0.00 | 0.00 | 0.00 | 39 | 1004.1 |
| 20260510211008 | 83 | 229 | 5.0 | 11.0 | 0.00 | 0.00 | 0.00 | 38 | 1004.0 |
| 20260510210508 | 83 | 208 | 3.0 | 9.0 | 0.00 | 0.00 | 0.00 | 39 | 1004.0 |
| 20260510210008 | 83 | 196 | 3.0 | 9.0 | 0.00 | 0.00 | 0.00 | 38 | 1003.9 |
| 20260510205508 | 83 | 224 | 2.0 | 6.0 | 0.00 | 0.00 | 0.00 | 38 | 1004.0 |
| 20260510205009 | 84 | 205 | 1.0 | 4.0 | 0.00 | 0.00 | 0.00 | 38 | 1004.0 |
| 20260510204508 | 84 | 211 | 1.0 | 4.0 | 0.00 | 0.00 | 0.00 | 39 | 1004.0 |
| 20260510204007 | 84 | 235 | 0.0 | 4.0 | 0.00 | 0.00 | 0.00 | 39 | 1003.9 |
| 20260510203507 | 84 | 222 | 0.0 | 8.0 | 0.00 | 0.00 | 0.00 | 39 | 1003.8 |
| 20260510203007 | 84 | 212 | 2.0 | 10.0 | 0.00 | 0.00 | 0.00 | 38 | 1003.8 |
| 20260510202508 | 84 | 222 | 4.0 | 14.0 | 0.00 | 0.00 | 0.00 | 36 | 1003.7 |
| 20260510202010 | 85 | 230 | 6.0 | 14.0 | 0.00 | 0.00 | 0.00 | 37 | 1003.8 |
| 20260510201505 | 85 | 164 | 3.0 | 9.0 | 0.00 | 0.00 | 0.00 | 37 | 1003.9 |
| 20260510201006 | 85 | 234 | 5.0 | 11.0 | 0.00 | 0.00 | 0.00 | 38 | 1003.9 |
| 20260510200506 | 84 | 218 | 5.0 | 11.0 | 0.00 | 0.00 | 0.00 | 37 | 1004.0 |
| 20260510200006 | 85 | 246 | 4.0 | 8.0 | 0.00 | 0.00 | 0.00 | 37 | 1004.1 |
| 20260510195507 | 85 | 231 | 1.0 | 10.0 | 0.00 | 0.00 | 0.00 | 39 | 1004.1 |
| 20260510195006 | 83 | 217 | 4.0 | 11.0 | 0.00 | 0.00 | 0.00 | 38 | 1004.3 |
| 20260510194505 | 84 | 228 | 2.0 | 9.0 | 0.00 | 0.00 | 0.00 | 38 | 1004.3 |
| 20260510194005 | 84 | 224 | 5.0 | 11.0 | 0.00 | 0.00 | 0.00 | 38 | 1004.4 |
| 20260510193505 | 83 | 233 | 5.0 | 11.0 | 0.00 | 0.00 | 0.00 | 37 | 1004.5 |
| 20260510193006 | 83 | 286 | 1.0 | 5.0 | 0.00 | 0.00 | 0.00 | 39 | 1004.5 |
| 20260510192504 | 82 | 242 | 1.0 | 6.0 | 0.00 | 0.00 | 0.00 | 39 | 1004.6 |
| 20260510192005 | 82 | 226 | 1.0 | 8.0 | 0.00 | 0.00 | 0.00 | 39 | 1004.7 |
| 20260510191504 | 82 | 222 | 2.0 | 9.0 | 0.00 | 0.00 | 0.00 | 39 | 1004.8 |
| 20260510191005 | 82 | 214 | 4.0 | 10.0 | 0.00 | 0.00 | 0.00 | 39 | 1004.9 |
| 20260510190506 | 83 | 217 | 1.0 | 7.0 | 0.00 | 0.00 | 0.00 | 39 | 1005.0 |
| 20260510190003 | 83 | 223 | 2.0 | 9.0 | 0.00 | 0.00 | 0.00 | 38 | 1005.2 |
| 20260510185504 | 84 | 240 | 5.0 | 9.0 | 0.00 | 0.00 | 0.00 | 37 | 1005.2 |
| 20260510185002 | 85 | 197 | 1.0 | 7.0 | 0.00 | 0.00 | 0.00 | 36 | 1005.0 |
| 20260510184502 | 84 | 143 | 1.0 | 7.0 | 0.00 | 0.00 | 0.00 | 37 | 1005.1 |
| 20260510184004 | 83 | 223 | 1.0 | 12.0 | 0.00 | 0.00 | 0.00 | 37 | 1005.2 |
| 20260510183503 | 83 | 219 | 6.0 | 12.0 | 0.00 | 0.00 | 0.00 | 36 | 1005.1 |
| 20260510183002 | 84 | 228 | 1.0 | 11.0 | 0.00 | 0.00 | 0.00 | 36 | 1005.1 |
| 20260510182505 | 84 | 224 | 3.0 | 6.0 | 0.00 | 0.00 | 0.00 | 37 | 1005.1 |
| 20260510182059 | 84 | 320 | 1.0 | 7.0 | 0.00 | 0.00 | 0.00 | 37 | 1005.2 |
| 20260510181609 | 83 | 251 | 1.0 | 10.0 | 0.00 | 0.00 | 0.00 | 37 | 1005.1 |
| 20260510181059 | 84 | 228 | 3.0 | 10.0 | 0.00 | 0.00 | 0.00 | 38 | 1005.1 |
| 20260510180557 | 83 | 143 | 5.0 | 10.0 | 0.00 | 0.00 | 0.00 | 38 | 1005.3 |
| 20260510180110 | 82 | 262 | 0.0 | 9.0 | 0.00 | 0.00 | 0.00 | 40 | 1005.4 |
| 20260510175558 | 82 | 227 | 3.0 | 11.0 | 0.00 | 0.00 | 0.00 | 38 | 1005.4 |
| 20260510175058 | 83 | 200 | 4.0 | 8.0 | 0.00 | 0.00 | 0.00 | 39 | 1005.5 |
| 20260510174557 | 83 | 219 | 2.0 | 10.0 | 0.00 | 0.00 | 0.00 | 39 | 1005.5 |
| 20260510174057 | 82 | 225 | 2.0 | 11.0 | 0.00 | 0.00 | 0.00 | 40 | 1005.4 |
| 20260510173557 | 81 | 217 | 5.0 | 11.0 | 0.00 | 0.00 | 0.00 | 40 | 1005.5 |
| 20260510173055 | 82 | 233 | 3.0 | 6.0 | 0.00 | 0.00 | 0.00 | 39 | 1005.4 |
| 20260510172555 | 82 | 360 | 2.0 | 9.0 | 0.00 | 0.00 | 0.00 | 41 | 1005.5 |
| 20260510172057 | 82 | 231 | 4.0 | 9.0 | 0.00 | 0.00 | 0.00 | 39 | 1005.4 |
| 20260510171601 | 82 | 315 | 2.0 | 9.0 | 0.00 | 0.00 | 0.00 | 39 | 1005.5 |
| 20260510171053 | 82 | 254 | 1.0 | 4.0 | 0.00 | 0.00 | 0.00 | 41 | 1005.6 |
| 20260510170553 | 81 | 113 | 0.0 | 4.0 | 0.00 | 0.00 | 0.00 | 42 | 1005.7 |
| 20260510170120 | 81 | 286 | 0.0 | 6.0 | 0.00 | 0.00 | 0.00 | 44 | 1005.7 |
| 20260510165553 | 81 | 160 | 2.0 | 6.0 | 0.00 | 0.00 | 0.00 | 41 | 1005.8 |
| 20260510165053 | 81 | 224 | 0.0 | 8.0 | 0.00 | 0.00 | 0.00 | 44 | 1005.9 |
| 20260510164604 | 81 | 350 | 2.0 | 10.0 | 0.00 | 0.00 | 0.00 | 42 | 1005.8 |
| 20260510164053 | 81 | 226 | 5.0 | 11.0 | 0.00 | 0.00 | 0.00 | 43 | 1006.0 |
| 20260510163552 | 82 | 259 | 2.0 | 7.0 | 0.00 | 0.00 | 0.00 | 42 | 1005.8 |
| 20260510163153 | 82 | 176 | 0.0 | 5.0 | 0.00 | 0.00 | 0.00 | 44 | 1005.9 |
| 20260510162551 | 82 | 51 | 1.0 | 4.0 | 0.00 | 0.00 | 0.00 | 43 | 1005.9 |
| 20260510162050 | 81 | 87 | 0.0 | 8.0 | 0.00 | 0.00 | 0.00 | 44 | 1006.0 |
| 20260510161550 | 81 | 200 | 4.0 | 8.0 | 0.00 | 0.00 | 0.00 | 44 | 1006.0 |
| 20260510161048 | 81 | 65 | 0.0 | 6.0 | 0.00 | 0.00 | 0.00 | 45 | 1006.1 |
| 20260510160549 | 80 | 144 | 1.0 | 6.0 | 0.00 | 0.00 | 0.00 | 45 | 1006.1 |
| 20260510160048 | 80 | 180 | 1.0 | 8.0 | 0.00 | 0.00 | 0.00 | 46 | 1006.1 |
| 20260510155547 | 80 | 125 | 1.0 | 8.0 | 0.00 | 0.00 | 0.00 | 46 | 1006.3 |
| 20260510155047 | 80 | 209 | 2.0 | 6.0 | 0.00 | 0.00 | 0.00 | 46 | 1006.2 |
| 20260510154546 | 80 | 284 | 1.0 | 5.0 | 0.00 | 0.00 | 0.00 | 47 | 1006.3 |
| 20260510154044 | 80 | 227 | 2.0 | 6.0 | 0.00 | 0.00 | 0.00 | 47 | 1006.3 |
| 20260510153544 | 79 | 261 | 1.0 | 6.0 | 0.00 | 0.00 | 0.00 | 47 | 1006.5 |
| 20260510153051 | 79 | 200 | 2.0 | 9.0 | 0.00 | 0.00 | 0.00 | 47 | 1006.5 |
| 20260510152543 | 79 | 231 | 4.0 | 9.0 | 0.00 | 0.00 | 0.00 | 48 | 1006.4 |
| 20260510152044 | 79 | 231 | 1.0 | 7.0 | 0.00 | 0.00 | 0.00 | 48 | 1006.4 |
| 20260510151543 | 79 | 122 | 1.0 | 6.0 | 0.00 | 0.00 | 0.00 | 49 | 1006.4 |
| 20260510151042 | 78 | 155 | 0.0 | 6.0 | 0.00 | 0.00 | 0.00 | 50 | 1006.4 |
| 20260510150540 | 78 | 182 | 0.0 | 6.0 | 0.00 | 0.00 | 0.00 | 49 | 1006.5 |
| 20260510150040 | 78 | 262 | 1.0 | 5.0 | 0.00 | 0.00 | 0.00 | 51 | 1006.5 |
| 20260510145538 | 78 | 153 | 1.0 | 5.0 | 0.00 | 0.00 | 0.00 | 51 | 1006.4 |
| 20260510145037 | 77 | 210 | 1.0 | 6.0 | 0.00 | 0.00 | 0.00 | 52 | 1006.4 |
| 20260510144536 | 76 | 229 | 1.0 | 8.0 | 0.00 | 0.00 | 0.00 | 52 | 1006.3 |
| 20260510144038 | 76 | 188 | 2.0 | 7.0 | 0.00 | 0.00 | 0.00 | 52 | 1006.3 |
| 20260510143535 | 76 | 209 | 3.0 | 7.0 | 0.00 | 0.00 | 0.00 | 52 | 1006.3 |
| 20260510143037 | 76 | 231 | 0.0 | 5.0 | 0.00 | 0.00 | 0.00 | 55 | 1006.2 |
| 20260510142534 | 75 | 238 | 3.0 | 5.0 | 0.00 | 0.00 | 0.00 | 54 | 1006.2 |
| 20260510142032 | 74 | 157 | 2.0 | 5.0 | 0.00 | 0.00 | 0.00 | 55 | 1006.2 |
| 20260510141534 | 74 | 229 | 2.0 | 6.0 | 0.00 | 0.00 | 0.00 | 55 | 1006.1 |
| 20260510141028 | 74 | 221 | 3.0 | 6.0 | 0.00 | 0.00 | 0.00 | 55 | 1006.1 |
| 20260510140527 | 74 | 172 | 2.0 | 6.0 | 0.00 | 0.00 | 0.00 | 53 | 1006.0 |
| 20260510140026 | 73 | 141 | 2.0 | 4.0 | 0.00 | 0.00 | 0.00 | 55 | 1005.9 |
| 20260510135525 | 73 | 216 | 2.0 | 4.0 | 0.00 | 0.00 | 0.00 | 58 | 1006.0 |
| 20260510135025 | 72 | 219 | 2.0 | 5.0 | 0.00 | 0.00 | 0.00 | 61 | 1006.1 |
| 20260510134524 | 72 | 177 | 1.0 | 4.0 | 0.00 | 0.00 | 0.00 | 60 | 1006.0 |
| 20260510134023 | 72 | 198 | 1.0 | 4.0 | 0.00 | 0.00 | 0.00 | 62 | 1006.0 |
| 20260510133520 | 71 | 214 | 2.0 | 4.0 | 0.00 | 0.00 | 0.00 | 61 | 1005.8 |
| 20260510133019 | 71 | 238 | 1.0 | 4.0 | 0.00 | 0.00 | 0.00 | 63 | 1005.8 |
| 20260510132519 | 70 | 223 | 0.0 | 2.0 | 0.00 | 0.00 | 0.00 | 63 | 1005.8 |
| 20260510132018 | 70 | 283 | 0.0 | 3.0 | 0.00 | 0.00 | 0.00 | 64 | 1005.8 |
| 20260510131517 | 70 | 212 | 0.0 | 3.0 | 0.00 | 0.00 | 0.00 | 64 | 1005.8 |
| 20260510131015 | 69 | 224 | 0.0 | 3.0 | 0.00 | 0.00 | 0.00 | 65 | 1005.8 |
| 20260510130514 | 68 | 261 | 0.0 | 2.0 | 0.00 | 0.00 | 0.00 | 67 | 1005.9 |
| 20260510130033 | 67 | 282 | 0.0 | 2.0 | 0.00 | 0.00 | 0.00 | 68 | 1006.0 |
| 20260510125511 | 66 | 262 | 0.0 | 3.0 | 0.00 | 0.00 | 0.00 | 69 | 1006.1 |
| 20260510125013 | 66 | 290 | 0.0 | 5.0 | 0.00 | 0.00 | 0.00 | 71 | 1006.2 |
| 20260510124508 | 65 | 233 | 3.0 | 5.0 | 0.00 | 0.00 | 0.00 | 70 | 1006.2 |
| 20260510124007 | 65 | 242 | 2.0 | 4.0 | 0.00 | 0.00 | 0.00 | 72 | 1006.2 |
| 20260510123506 | 64 | 219 | 1.0 | 5.0 | 0.00 | 0.00 | 0.00 | 73 | 1006.2 |
| 20260510123004 | 64 | 235 | 3.0 | 5.0 | 0.00 | 0.00 | 0.00 | 74 | 1006.0 |
| 20260510122503 | 63 | 212 | 1.0 | 3.0 | 0.00 | 0.00 | 0.00 | 75 | 1005.9 |
| 20260510122005 | 63 | 219 | 0.0 | 3.0 | 0.00 | 0.00 | 0.00 | 77 | 1005.7 |
| 20260510121501 | 62 | 295 | 0.0 | 4.0 | 0.00 | 0.00 | 0.00 | 78 | 1005.7 |
| 20260510121059 | 61 | 290 | 1.0 | 4.0 | 0.00 | 0.00 | 0.00 | 78 | 1005.7 |
| 20260510120558 | 61 | 287 | 0.0 | 3.0 | 0.00 | 0.00 | 0.00 | 82 | 1005.7 |
| 20260510120059 | 60 | 260 | 0.0 | 3.0 | 0.00 | 0.00 | 0.00 | 83 | 1005.7 |
| 20260510115558 | 59 | 290 | 0.0 | 1.0 | 0.00 | 0.00 | 0.00 | 85 | 1005.6 |
| 20260510115059 | 58 | 290 | 0.0 | 1.0 | 0.00 | 0.00 | 0.00 | 86 | 1005.6 |
| 20260510114604 | 57 | 288 | 0.0 | 1.0 | 0.00 | 0.00 | 0.00 | 88 | 1005.5 |
| 20260510114056 | 57 | 226 | 0.0 | 1.0 | 0.00 | 0.00 | 0.00 | 90 | 1005.5 |
| 20260510113556 | 56 | 227 | 0.0 | 1.0 | 0.00 | 0.00 | 0.00 | 91 | 1005.5 |
| 20260510113057 | 56 | 242 | 0.0 | 0.0 | 0.00 | 0.00 | 0.00 | 91 | 1005.4 |
| 20260510112555 | 56 | 243 | 0.0 | 0.0 | 0.00 | 0.00 | 0.00 | 92 | 1005.4 |
| 20260510112056 | 55 | 243 | 0.0 | 0.0 | 0.00 | 0.00 | 0.00 | 92 | 1005.4 |
| 20260510111557 | 54 | 243 | 0.0 | 0.0 | 0.00 | 0.00 | 0.00 | 93 | 1005.3 |
| 20260510111053 | 53 | 243 | 0.0 | 0.0 | 0.00 | 0.00 | 0.00 | 92 | 1005.1 |
| 20260510110553 | 53 | 243 | 0.0 | 0.0 | 0.00 | 0.00 | 0.00 | 92 | 1005.2 |
| 20260510110052 | 52 | 243 | 0.0 | 0.0 | 0.00 | 0.00 | 0.00 | 92 | 1005.1 |
| 20260510105551 | 52 | 243 | 0.0 | 0.0 | 0.00 | 0.00 | 0.00 | 92 | 1005.0 |
| 20260510105050 | 52 | 243 | 0.0 | 0.0 | 0.00 | 0.00 | 0.00 | 92 | 1004.9 |
| 20260510104556 | 52 | 243 | 0.0 | 0.0 | 0.00 | 0.00 | 0.00 | 92 | 1004.9 |
| 20260510104049 | 52 | 243 | 0.0 | 0.0 | 0.00 | 0.00 | 0.00 | 92 | 1004.7 |
| 20260510103548 | 51 | 243 | 0.0 | 0.0 | 0.00 | 0.00 | 0.00 | 91 | 1004.7 |
| 20260510103048 | 51 | 243 | 0.0 | 0.0 | 0.00 | 0.00 | 0.00 | 91 | 1004.7 |
| 20260510102548 | 52 | 243 | 0.0 | 0.0 | 0.00 | 0.00 | 0.00 | 91 | 1004.6 |
| 20260510102046 | 52 | 243 | 0.0 | 0.0 | 0.00 | 0.00 | 0.00 | 91 | 1004.5 |
| 20260510101547 | 52 | 243 | 0.0 | 0.0 | 0.00 | 0.00 | 0.00 | 91 | 1004.4 |
| 20260510101043 | 52 | 243 | 0.0 | 0.0 | 0.00 | 0.00 | 0.00 | 91 | 1004.4 |
| 20260510100543 | 52 | 243 | 0.0 | 0.0 | 0.00 | 0.00 | 0.00 | 91 | 1004.4 |
| 20260510100042 | 52 | 243 | 0.0 | 0.0 | 0.00 | 0.00 | 0.00 | 91 | 1004.2 |
| 20260510095542 | 52 | 243 | 0.0 | 0.0 | 0.00 | 0.00 | 0.00 | 91 | 1004.1 |
| 20260510095041 | 52 | 243 | 0.0 | 0.0 | 0.00 | 0.00 | 0.00 | 90 | 1004.1 |
| 20260510094540 | 52 | 243 | 0.0 | 0.0 | 0.00 | 0.00 | 0.00 | 90 | 1004.1 |
| 20260510094039 | 53 | 243 | 0.0 | 0.0 | 0.00 | 0.00 | 0.00 | 91 | 1004.1 |
| 20260510093538 | 53 | 243 | 0.0 | 0.0 | 0.00 | 0.00 | 0.00 | 90 | 1004.0 |
| 20260510093038 | 53 | 243 | 0.0 | 0.0 | 0.00 | 0.00 | 0.00 | 90 | 1003.9 |
| 20260510092538 | 53 | 243 | 0.0 | 0.0 | 0.00 | 0.00 | 0.00 | 90 | 1003.9 |
| 20260510092036 | 53 | 243 | 0.0 | 1.0 | 0.00 | 0.00 | 0.00 | 90 | 1003.9 |
| 20260510091537 | 53 | 243 | 0.0 | 1.0 | 0.00 | 0.00 | 0.00 | 90 | 1003.9 |
| 20260510091035 | 54 | 243 | 0.0 | 0.0 | 0.00 | 0.00 | 0.00 | 90 | 1003.8 |
| 20260510090539 | 54 | 243 | 0.0 | 0.0 | 0.00 | 0.00 | 0.00 | 90 | 1003.8 |
| 20260510090036 | 53 | 243 | 0.0 | 0.0 | 0.00 | 0.00 | 0.00 | 90 | 1003.8 |
| 20260510085534 | 54 | 243 | 0.0 | 0.0 | 0.00 | 0.00 | 0.00 | 89 | 1003.8 |
| 20260510085032 | 54 | 243 | 0.0 | 0.0 | 0.00 | 0.00 | 0.00 | 89 | 1003.7 |
| 20260510084535 | 54 | 243 | 0.0 | 1.0 | 0.00 | 0.00 | 0.00 | 89 | 1003.7 |
| 20260510084031 | 54 | 243 | 0.0 | 1.0 | 0.00 | 0.00 | 0.00 | 89 | 1003.7 |
| 20260510083531 | 54 | 243 | 0.0 | 0.0 | 0.00 | 0.00 | 0.00 | 89 | 1003.7 |
| 20260510083030 | 55 | 242 | 0.0 | 0.0 | 0.00 | 0.00 | 0.00 | 88 | 1003.6 |
| 20260510082528 | 55 | 243 | 0.0 | 1.0 | 0.00 | 0.00 | 0.00 | 88 | 1003.6 |
| 20260510082028 | 55 | 243 | 0.0 | 3.0 | 0.00 | 0.00 | 0.00 | 88 | 1003.6 |
| 20260510081529 | 55 | 242 | 0.0 | 3.0 | 0.00 | 0.00 | 0.00 | 89 | 1003.5 |
| 20260510081026 | 55 | 209 | 0.0 | 1.0 | 0.00 | 0.00 | 0.00 | 89 | 1003.5 |
| 20260510080525 | 56 | 231 | 0.0 | 1.0 | 0.00 | 0.00 | 0.00 | 88 | 1003.4 |
| 20260510080025 | 56 | 231 | 0.0 | 2.0 | 0.00 | 0.00 | 0.00 | 89 | 1003.4 |
| 20260510075524 | 56 | 226 | 0.0 | 2.0 | 0.00 | 0.00 | 0.00 | 89 | 1003.4 |
| 20260510075024 | 55 | 226 | 0.0 | 1.0 | 0.00 | 0.00 | 0.00 | 89 | 1003.3 |
| 20260510074524 | 55 | 231 | 0.0 | 0.0 | 0.00 | 0.00 | 0.00 | 89 | 1003.3 |
| 20260510074022 | 55 | 203 | 0.0 | 0.0 | 0.00 | 0.00 | 0.00 | 88 | 1003.2 |
| 20260510073521 | 55 | 203 | 0.0 | 0.0 | 0.00 | 0.00 | 0.00 | 88 | 1003.1 |
| 20260510073021 | 56 | 203 | 0.0 | 0.0 | 0.00 | 0.00 | 0.00 | 88 | 1003.1 |
| 20260510072522 | 56 | 203 | 0.0 | 0.0 | 0.00 | 0.00 | 0.00 | 88 | 1003.0 |
| 20260510072023 | 56 | 203 | 0.0 | 0.0 | 0.00 | 0.00 | 0.00 | 87 | 1003.0 |
| 20260510071521 | 56 | 203 | 0.0 | 0.0 | 0.00 | 0.00 | 0.00 | 87 | 1003.1 |
| 20260510071019 | 56 | 203 | 0.0 | 0.0 | 0.00 | 0.00 | 0.00 | 86 | 1003.2 |
| 20260510070518 | 56 | 196 | 0.0 | 0.0 | 0.00 | 0.00 | 0.00 | 86 | 1003.2 |
| 20260510070018 | 57 | 196 | 0.0 | 0.0 | 0.00 | 0.00 | 0.00 | 86 | 1003.2 |
| 20260510065516 | 57 | 203 | 0.0 | 0.0 | 0.00 | 0.00 | 0.00 | 86 | 1003.2 |
| 20260510065019 | 57 | 205 | 0.0 | 1.0 | 0.00 | 0.00 | 0.00 | 86 | 1003.0 |
| 20260510064527 | 57 | 195 | 0.0 | 1.0 | 0.00 | 0.00 | 0.00 | 85 | 1003.1 |
| 20260510064014 | 57 | 233 | 0.0 | 1.0 | 0.00 | 0.00 | 0.00 | 84 | 1003.0 |
| 20260510063516 | 58 | 233 | 0.0 | 2.0 | 0.00 | 0.00 | 0.00 | 85 | 1003.1 |
| 20260510063014 | 57 | 234 | 0.0 | 3.0 | 0.00 | 0.00 | 0.00 | 86 | 1003.2 |
| 20260510062513 | 57 | 221 | 0.0 | 1.0 | 0.00 | 0.00 | 0.00 | 86 | 1003.2 |
| 20260510062012 | 57 | 204 | 0.0 | 1.0 | 0.00 | 0.00 | 0.00 | 85 | 1003.0 |
| 20260510061519 | 57 | 218 | 0.0 | 1.0 | 0.00 | 0.00 | 0.00 | 85 | 1002.9 |
| 20260510061011 | 57 | 218 | 0.0 | 1.0 | 0.00 | 0.00 | 0.00 | 85 | 1003.0 |
| 20260510060510 | 57 | 242 | 0.0 | 0.0 | 0.00 | 0.00 | 0.00 | 84 | 1002.9 |
| 20260510060010 | 57 | 242 | 0.0 | 0.0 | 0.00 | 0.00 | 0.00 | 84 | 1002.8 |
| 20260510055509 | 57 | 242 | 0.0 | 0.0 | 0.00 | 0.00 | 0.00 | 83 | 1002.8 |
| 20260510055008 | 58 | 242 | 0.0 | 0.0 | 0.00 | 0.00 | 0.00 | 82 | 1002.9 |
| 20260510054507 | 58 | 242 | 0.0 | 0.0 | 0.00 | 0.00 | 0.00 | 83 | 1003.0 |
| 20260510054008 | 58 | 242 | 0.0 | 0.0 | 0.00 | 0.00 | 0.00 | 82 | 1003.0 |
| 20260510053506 | 59 | 242 | 0.0 | 0.0 | 0.00 | 0.00 | 0.00 | 82 | 1003.0 |
| 20260510053014 | 59 | 242 | 0.0 | 1.0 | 0.00 | 0.00 | 0.00 | 81 | 1002.9 |
| 20260510052503 | 59 | 242 | 0.0 | 1.0 | 0.00 | 0.00 | 0.00 | 81 | 1003.0 |
| 20260510052002 | 59 | 242 | 0.0 | 1.0 | 0.00 | 0.00 | 0.00 | 80 | 1003.0 |
| 20260510051506 | 59 | 242 | 0.0 | 1.0 | 0.00 | 0.00 | 0.00 | 81 | 1003.0 |
| 20260510051001 | 59 | 242 | 0.0 | 2.0 | 0.00 | 0.00 | 0.00 | 81 | 1002.9 |
| 20260510050600 | 59 | 245 | 0.0 | 2.0 | 0.00 | 0.00 | 0.00 | 81 | 1002.9 |
| 20260510050104 | 59 | 237 | 0.0 | 1.0 | 0.00 | 0.00 | 0.00 | 80 | 1003.0 |
| 20260510045559 | 59 | 237 | 0.0 | 1.0 | 0.00 | 0.00 | 0.00 | 80 | 1002.9 |
| 20260510045058 | 60 | 237 | 0.0 | 1.0 | 0.00 | 0.00 | 0.00 | 79 | 1003.0 |
| 20260510044557 | 60 | 237 | 0.0 | 0.0 | 0.00 | 0.00 | 0.00 | 79 | 1003.0 |
| 20260510044056 | 60 | 237 | 0.0 | 1.0 | 0.00 | 0.00 | 0.00 | 78 | 1003.0 |
| 20260510043557 | 60 | 237 | 0.0 | 1.0 | 0.00 | 0.00 | 0.00 | 78 | 1003.0 |
| 20260510043055 | 61 | 237 | 0.0 | 1.0 | 0.00 | 0.00 | 0.00 | 78 | 1003.1 |
| 20260510042553 | 61 | 237 | 0.0 | 1.0 | 0.00 | 0.00 | 0.00 | 77 | 1003.0 |
| 20260510042053 | 61 | 243 | 0.0 | 0.0 | 0.00 | 0.00 | 0.00 | 77 | 1003.1 |
| 20260510041553 | 61 | 217 | 0.0 | 0.0 | 0.00 | 0.00 | 0.00 | 77 | 1002.9 |
| 20260510041052 | 61 | 217 | 0.0 | 0.0 | 0.00 | 0.00 | 0.00 | 76 | 1003.0 |
| 20260510040551 | 61 | 217 | 0.0 | 0.0 | 0.00 | 0.00 | 0.00 | 76 | 1002.9 |
| 20260510040049 | 61 | 217 | 0.0 | 1.0 | 0.00 | 0.00 | 0.00 | 76 | 1003.0 |
| 20260510035548 | 61 | 217 | 0.0 | 1.0 | 0.00 | 0.00 | 0.00 | 76 | 1002.9 |
| 20260510035048 | 62 | 217 | 0.0 | 1.0 | 0.00 | 0.00 | 0.00 | 75 | 1002.9 |
| 20260510034550 | 62 | 218 | 0.0 | 1.0 | 0.00 | 0.00 | 0.00 | 75 | 1002.9 |
| 20260510034048 | 62 | 224 | 0.0 | 1.0 | 0.00 | 0.00 | 0.00 | 75 | 1002.8 |
| 20260510033549 | 62 | 224 | 0.0 | 0.0 | 0.00 | 0.00 | 0.00 | 74 | 1002.8 |
| 20260510033056 | 62 | 224 | 0.0 | 1.0 | 0.00 | 0.00 | 0.00 | 75 | 1002.6 |
| 20260510032547 | 62 | 204 | 0.0 | 1.0 | 0.00 | 0.00 | 0.00 | 75 | 1002.7 |
| 20260510032048 | 61 | 189 | 0.0 | 0.0 | 0.00 | 0.00 | 0.00 | 75 | 1002.6 |
| 20260510031548 | 61 | 189 | 0.0 | 0.0 | 0.00 | 0.00 | 0.00 | 75 | 1002.6 |
| 20260510031048 | 61 | 189 | 0.0 | 0.0 | 0.00 | 0.00 | 0.00 | 75 | 1002.6 |
| 20260510030546 | 61 | 189 | 0.0 | 0.0 | 0.00 | 0.00 | 0.00 | 75 | 1002.6 |
| 20260510030046 | 61 | 189 | 0.0 | 0.0 | 0.00 | 0.00 | 0.00 | 74 | 1002.5 |
| 20260510025547 | 62 | 189 | 0.0 | 0.0 | 0.00 | 0.00 | 0.00 | 74 | 1002.6 |
| 20260510025046 | 62 | 189 | 0.0 | 0.0 | 0.00 | 0.00 | 0.00 | 73 | 1002.5 |
| 20260510024546 | 62 | 189 | 0.0 | 0.0 | 0.00 | 0.00 | 0.00 | 73 | 1002.4 |
| 20260510024046 | 62 | 189 | 0.0 | 0.0 | 0.00 | 0.00 | 0.00 | 73 | 1002.3 |
| 20260510023545 | 63 | 189 | 0.0 | 0.0 | 0.00 | 0.00 | 0.00 | 72 | 1002.4 |
| 20260510023046 | 63 | 189 | 0.0 | 0.0 | 0.00 | 0.00 | 0.00 | 71 | 1002.3 |
| 20260510022545 | 63 | 189 | 0.0 | 1.0 | 0.00 | 0.00 | 0.00 | 71 | 1002.3 |
| 20260510022044 | 64 | 189 | 0.0 | 1.0 | 0.00 | 0.00 | 0.00 | 70 | 1002.2 |
| 20260510021547 | 64 | 204 | 0.0 | 0.0 | 0.00 | 0.00 | 0.00 | 70 | 1002.1 |
| 20260510021045 | 64 | 199 | 0.0 | 0.0 | 0.00 | 0.00 | 0.00 | 69 | 1002.1 |
| 20260510020545 | 65 | 199 | 0.0 | 2.0 | 0.00 | 0.00 | 0.00 | 69 | 1002.1 |
| 20260510020045 | 65 | 200 | 0.0 | 2.0 | 0.00 | 0.00 | 0.00 | 69 | 1002.0 |
| 20260510015546 | 65 | 207 | 0.0 | 2.0 | 0.00 | 0.00 | 0.00 | 69 | 1002.0 |
| 20260510015044 | 65 | 200 | 0.0 | 2.0 | 0.00 | 0.00 | 0.00 | 69 | 1001.9 |
| 20260510014545 | 65 | 200 | 0.0 | 1.0 | 0.00 | 0.00 | 0.00 | 69 | 1001.8 |
| 20260510014045 | 65 | 210 | 0.0 | 2.0 | 0.00 | 0.00 | 0.00 | 69 | 1001.8 |
| 20260510013543 | 65 | 203 | 0.0 | 2.0 | 0.00 | 0.00 | 0.00 | 68 | 1001.8 |
| 20260510013045 | 65 | 212 | 0.0 | 0.0 | 0.00 | 0.00 | 0.00 | 68 | 1001.6 |
| 20260510012545 | 65 | 212 | 0.0 | 1.0 | 0.00 | 0.00 | 0.00 | 68 | 1001.6 |
| 20260510012047 | 65 | 211 | 0.0 | 1.0 | 0.00 | 0.00 | 0.00 | 67 | 1001.5 |
| 20260510011544 | 66 | 213 | 0.0 | 1.0 | 0.00 | 0.00 | 0.00 | 67 | 1001.5 |
| 20260510011043 | 66 | 213 | 0.0 | 1.0 | 0.00 | 0.00 | 0.00 | 67 | 1001.4 |
| 20260510010542 | 66 | 213 | 0.0 | 1.0 | 0.00 | 0.00 | 0.00 | 66 | 1001.4 |
| 20260510010043 | 67 | 221 | 0.0 | 1.0 | 0.00 | 0.00 | 0.00 | 66 | 1001.5 |
| 20260510005543 | 67 | 224 | 0.0 | 1.0 | 0.00 | 0.00 | 0.00 | 65 | 1001.4 |
| 20260510005042 | 67 | 174 | 0.0 | 1.0 | 0.00 | 0.00 | 0.00 | 65 | 1001.2 |
| 20260510004543 | 67 | 207 | 0.0 | 1.0 | 0.00 | 0.00 | 0.00 | 65 | 1001.2 |
| 20260510004042 | 68 | 209 | 0.0 | 1.0 | 0.00 | 0.00 | 0.00 | 64 | 1001.1 |
| 20260510003543 | 68 | 172 | 0.0 | 0.0 | 0.00 | 0.00 | 0.00 | 64 | 1000.9 |
| 20260510003055 | 68 | 173 | 0.0 | 1.0 | 0.00 | 0.00 | 0.00 | 63 | 1000.9 |
| 20260510002542 | 69 | 142 | 0.0 | 1.0 | 0.00 | 0.00 | 0.00 | 62 | 1000.9 |
| 20260510002042 | 70 | 142 | 0.0 | 1.0 | 0.00 | 0.00 | 0.00 | 61 | 1000.9 |
| 20260510001542 | 70 | 203 | 0.0 | 0.0 | 0.00 | 0.00 | 0.00 | 60 | 1000.8 |
| 20260510001043 | 71 | 203 | 0.0 | 1.0 | 0.00 | 0.00 | 0.00 | 59 | 1000.8 |
| 20260510000545 | 71 | 203 | 0.0 | 1.0 | 0.00 | 0.00 | 0.00 | 58 | 1000.9 |
| 20260510000043 | 72 | 200 | 0.0 | 2.0 | 0.00 | 0.00 | 0.00 | 57 | 1000.8 |
| 20260509235540 | 73 | 206 | 0.0 | 2.0 | 0.00 | 0.00 | 0.00 | 56 | 1000.7 |
| 20260509235041 | 73 | 166 | 0.0 | 3.0 | 0.00 | 0.00 | 0.00 | 55 | 1000.7 |
| 20260509234544 | 74 | 207 | 1.0 | 3.0 | 0.00 | 0.00 | 0.00 | 54 | 1000.6 |
| 20260509234039 | 74 | 228 | 0.0 | 3.0 | 0.00 | 0.00 | 0.00 | 54 | 1000.7 |
| 20260509233544 | 75 | 225 | 1.0 | 5.0 | 0.00 | 0.00 | 0.00 | 53 | 1000.7 |
| 20260509233040 | 75 | 238 | 1.0 | 4.0 | 0.00 | 0.00 | 0.00 | 53 | 1000.6 |
| 20260509232544 | 75 | 209 | 1.0 | 5.0 | 0.00 | 0.00 | 0.00 | 52 | 1000.5 |
| 20260509232040 | 75 | 235 | 2.0 | 4.0 | 0.00 | 0.00 | 0.00 | 52 | 1000.6 |
| 20260509231540 | 75 | 212 | 1.0 | 5.0 | 0.00 | 0.00 | 0.00 | 52 | 1000.6 |
| 20260509231038 | 75 | 191 | 2.0 | 9.0 | 0.00 | 0.00 | 0.00 | 52 | 1000.6 |
| 20260509230538 | 75 | 243 | 3.0 | 9.0 | 0.00 | 0.00 | 0.00 | 52 | 1000.5 |
| 20260509230047 | 75 | 206 | 4.0 | 7.0 | 0.00 | 0.00 | 0.00 | 51 | 1000.6 |
| 20260509225539 | 76 | 224 | 3.0 | 7.0 | 0.00 | 0.00 | 0.00 | 52 | 1000.5 |
| 20260509225037 | 76 | 139 | 2.0 | 7.0 | 0.00 | 0.00 | 0.00 | 52 | 1000.4 |
| 20260509224547 | 75 | 221 | 3.0 | 8.0 | 0.00 | 0.00 | 0.00 | 52 | 1000.4 |
| 20260509224041 | 75 | 224 | 3.0 | 8.0 | 0.00 | 0.00 | 0.00 | 52 | 1000.4 |
| 20260509223536 | 75 | 231 | 4.0 | 8.0 | 0.00 | 0.00 | 0.00 | 52 | 1000.4 |
| 20260509223041 | 75 | 176 | 1.0 | 6.0 | 0.00 | 0.00 | 0.00 | 52 | 1000.4 |
| 20260509222536 | 75 | 236 | 2.0 | 8.0 | 0.00 | 0.00 | 0.00 | 52 | 1000.4 |
| 20260509222036 | 75 | 234 | 3.0 | 11.0 | 0.00 | 0.00 | 0.00 | 52 | 1000.6 |
| 20260509221536 | 75 | 233 | 5.0 | 11.0 | 0.00 | 0.00 | 0.00 | 52 | 1000.6 |
| 20260509221036 | 75 | 250 | 2.0 | 5.0 | 0.00 | 0.00 | 0.00 | 53 | 1000.6 |
| 20260509220635 | 75 | 232 | 1.0 | 7.0 | 0.00 | 0.00 | 0.00 | 53 | 1000.6 |
| 20260509220036 | 75 | 235 | 2.0 | 8.0 | 0.00 | 0.00 | 0.00 | 53 | 1000.6 |
| 20260509215533 | 75 | 238 | 1.0 | 5.0 | 0.00 | 0.00 | 0.00 | 52 | 1000.5 |
| 20260509215033 | 75 | 234 | 1.0 | 12.0 | 0.00 | 0.00 | 0.00 | 52 | 1000.6 |
| 20260509214532 | 75 | 219 | 7.0 | 12.0 | 0.00 | 0.00 | 0.00 | 52 | 1000.6 |
| 20260509214034 | 75 | 223 | 4.0 | 10.0 | 0.00 | 0.00 | 0.00 | 51 | 1000.7 |
| 20260509213531 | 75 | 212 | 3.0 | 12.0 | 0.00 | 0.00 | 0.00 | 51 | 1000.6 |
| 20260509213030 | 76 | 201 | 5.0 | 11.0 | 0.00 | 0.00 | 0.00 | 51 | 1000.5 |
| 20260509212529 | 76 | 217 | 2.0 | 11.0 | 0.00 | 0.00 | 0.00 | 52 | 1000.4 |
| 20260509212033 | 76 | 196 | 3.0 | 8.0 | 0.00 | 0.00 | 0.00 | 51 | 1000.5 |
| 20260509211529 | 75 | 225 | 2.0 | 8.0 | 0.00 | 0.00 | 0.00 | 52 | 1000.4 |